When you browse on this site, cookies collect data to enhance your experience and personalize the content and advertising you see.
Visit our Privacy Policy to learn more. By continuing to use the site, you agree to this use of cookies and data.
  • In Lithuania
  • List of Countries
  • For 7 days
  • Water Temperature
  • Satellite Maps
  • Weather Map
  • Weather Widgets
  • user-avatar
    Login

    Hourly Weather Mashkovo

    Today, 16 June, Sunday

    Time Temperature Precipitation Wind Pressure Humidity
    00:00 +14°C° 0 mm 1 mps 742 mmHg 94%
    01:00 +14°C° 0 mm 1 mps 742 mmHg 94%
    02:00 +13°C° 0 mm 1 mps 742 mmHg 94%
    03:00 +13°C° 0 mm 1 mps 742 mmHg 94%
    04:00 +14°C° 0.1 mm 1 mps 742 mmHg 94%
    05:00 +15°C° 0.1 mm 1 mps 742 mmHg 94%
    06:00 +15°C° 0.1 mm 2 mps 742 mmHg 94%
    07:00 +17°C° 0.1 mm 2 mps 742 mmHg 88%
    08:00 +18°C° 0.1 mm 2 mps 742 mmHg 82%
    09:00 +19°C° 0.1 mm 2 mps 743 mmHg 76%
    10:00 +20°C° 0.1 mm 3 mps 743 mmHg 74%
    11:00 +20°C° 0.1 mm 3 mps 742 mmHg 71%
    12:00 +21°C° 0.1 mm 4 mps 742 mmHg 69%
    13:00 +21°C° 0.1 mm 4 mps 742 mmHg 68%
    14:00 +21°C° 0.1 mm 4 mps 742 mmHg 68%
    15:00 +22°C° 0.1 mm 4 mps 742 mmHg 68%
    16:00 +22°C° 0 mm 3 mps 742 mmHg 69%
    17:00 +21°C° 0 mm 3 mps 742 mmHg 70%
    18:00 +21°C° 0 mm 2 mps 742 mmHg 72%
    19:00 +20°C° 0.1 mm 2 mps 742 mmHg 76%
    20:00 +19°C° 0.1 mm 1 mps 742 mmHg 80%
    21:00 +16°C° 0.1 mm 0 mps 743 mmHg 85%
    22:00 +15°C° 0 mm 0 mps 743 mmHg 85%
    23:00 +14°C° 0 mm 0 mps 743 mmHg 86%

    Tomorrow, 17 June, Monday

    Time Temperature Precipitation Wind Pressure Humidity
    00:00 +14°C° 0 mm 0 mps 743 mmHg 87%
    01:00 +13°C° 0 mm 0 mps 743 mmHg 88%
    02:00 +13°C° 0 mm 0 mps 743 mmHg 89%
    03:00 +14°C° 0 mm 1 mps 743 mmHg 90%
    04:00 +14°C° 0 mm 1 mps 743 mmHg 89%
    05:00 +15°C° 0 mm 1 mps 743 mmHg 88%
    06:00 +16°C° 0 mm 1 mps 743 mmHg 88%
    07:00 +19°C° 0 mm 1 mps 743 mmHg 83%
    08:00 +19°C° 0 mm 2 mps 744 mmHg 78%
    09:00 +21°C° 0 mm 2 mps 744 mmHg 73%
    10:00 +21°C° 0.1 mm 2 mps 744 mmHg 69%
    11:00 +23°C° 0.1 mm 2 mps 744 mmHg 65%
    12:00 +24°C° 0.1 mm 2 mps 744 mmHg 61%
    13:00 +24°C° 0.1 mm 2 mps 743 mmHg 60%
    14:00 +25°C° 0.1 mm 2 mps 743 mmHg 60%
    15:00 +25°C° 0.1 mm 2 mps 743 mmHg 59%
    16:00 +25°C° 0 mm 2 mps 743 mmHg 63%
    17:00 +24°C° 0 mm 2 mps 743 mmHg 66%
    18:00 +24°C° 0 mm 2 mps 743 mmHg 70%
    19:00 +21°C° 0 mm 2 mps 743 mmHg 72%
    20:00 +20°C° 0 mm 2 mps 742 mmHg 74%
    21:00 +20°C° 0 mm 1 mps 742 mmHg 76%
    22:00 +19°C° 0 mm 1 mps 742 mmHg 77%
    23:00 +18°C° 0 mm 1 mps 742 mmHg 78%

    Day after tomorrow, 18 June, Tuesday

    Time Temperature Precipitation Wind Pressure Humidity
    00:00 +18°C° 0 mm 1 mps 742 mmHg 79%
    01:00 +18°C° 0 mm 1 mps 742 mmHg 80%
    02:00 +18°C° 0 mm 1 mps 742 mmHg 80%
    03:00 +17°C° 0 mm 2 mps 742 mmHg 80%
    04:00 +18°C° 0.1 mm 1 mps 742 mmHg 84%
    05:00 +18°C° 0.1 mm 1 mps 742 mmHg 87%
    06:00 +18°C° 0.1 mm 1 mps 742 mmHg 90%
    07:00 +17°C° 0.5 mm 2 mps 742 mmHg 90%
    08:00 +18°C° 0.5 mm 2 mps 742 mmHg 91%
    09:00 +18°C° 0.5 mm 3 mps 742 mmHg 91%
    10:00 +18°C° 0.1 mm 3 mps 742 mmHg 90%
    11:00 +18°C° 0.1 mm 3 mps 742 mmHg 89%
    12:00 +19°C° 0.1 mm 3 mps 742 mmHg 88%
    13:00 +20°C° 0 mm 3 mps 742 mmHg 81%
    14:00 +22°C° 0 mm 3 mps 742 mmHg 74%
    15:00 +24°C° 0 mm 3 mps 742 mmHg 67%
    16:00 +25°C° 0 mm 3 mps 742 mmHg 67%
    17:00 +25°C° 0 mm 3 mps 742 mmHg 67%
    18:00 +25°C° 0 mm 2 mps 742 mmHg 67%
    19:00 +23°C° 0 mm 2 mps 742 mmHg 70%
    20:00 +21°C° 0 mm 2 mps 743 mmHg 72%
    21:00 +19°C° 0 mm 3 mps 743 mmHg 75%
    22:00 +18°C° 0 mm 3 mps 743 mmHg 76%
    23:00 +18°C° 0 mm 3 mps 743 mmHg 78%

    19 June, Wednesday

    Time Temperature Precipitation Wind Pressure Humidity
    00:00 +17°C° 0 mm 3 mps 744 mmHg 80%
    01:00 +16°C° 0 mm 3 mps 744 mmHg 81%
    02:00 +16°C° 0 mm 3 mps 744 mmHg 82%
    03:00 +14°C° 0 mm 3 mps 744 mmHg 83%
    04:00 +14°C° 0 mm 3 mps 744 mmHg 82%
    05:00 +14°C° 0 mm 3 mps 744 mmHg 81%
    06:00 +14°C° 0 mm 3 mps 745 mmHg 79%
    07:00 +17°C° 0 mm 3 mps 745 mmHg 77%
    08:00 +19°C° 0 mm 3 mps 745 mmHg 74%
    09:00 +21°C° 0 mm 3 mps 745 mmHg 72%
    10:00 +22°C° 0 mm 3 mps 745 mmHg 67%
    11:00 +24°C° 0 mm 3 mps 745 mmHg 62%
    12:00 +26°C° 0 mm 3 mps 745 mmHg 57%
    13:00 +26°C° 0 mm 3 mps 745 mmHg 55%
    14:00 +26°C° 0 mm 3 mps 745 mmHg 54%
    15:00 +27°C° 0 mm 3 mps 745 mmHg 53%
    16:00 +27°C° 0 mm 2 mps 745 mmHg 56%
    17:00 +27°C° 0 mm 2 mps 745 mmHg 60%
    18:00 +27°C° 0 mm 1 mps 745 mmHg 63%
    19:00 +24°C° 0 mm 1 mps 745 mmHg 67%
    20:00 +22°C° 0 mm 1 mps 745 mmHg 71%
    21:00 +20°C° 0 mm 1 mps 745 mmHg 75%
    22:00 +19°C° 0 mm 1 mps 745 mmHg 76%
    23:00 +19°C° 0 mm 1 mps 745 mmHg 78%

    20 June, Thursday

    Time Temperature Precipitation Wind Pressure Humidity
    00:00 +18°C° 0 mm 1 mps 746 mmHg 80%
    01:00 +16°C° 0 mm 1 mps 746 mmHg 80%
    02:00 +16°C° 0 mm 1 mps 746 mmHg 80%
    03:00 +15°C° 0 mm 1 mps 746 mmHg 80%
    04:00 +16°C° 0 mm 1 mps 746 mmHg 79%
    05:00 +18°C° 0 mm 1 mps 746 mmHg 78%
    06:00 +18°C° 0 mm 1 mps 746 mmHg 77%
    07:00 +20°C° 0 mm 1 mps 746 mmHg 72%
    08:00 +22°C° 0 mm 1 mps 746 mmHg 67%
    09:00 +24°C° 0 mm 1 mps 747 mmHg 62%
    10:00 +25°C° 0 mm 1 mps 747 mmHg 57%
    11:00 +24°C° 0 mm 0 mps 747 mmHg 52%
    12:00 +25°C° 0 mm 0 mps 746 mmHg 48%
    13:00 +25°C° 0 mm 0 mps 746 mmHg 47%
    14:00 +27°C° 0 mm 1 mps 746 mmHg 46%
    15:00 +27°C° 0 mm 1 mps 746 mmHg 45%
    16:00 +27°C° 0 mm 1 mps 746 mmHg 49%
    17:00 +27°C° 0 mm 1 mps 746 mmHg 54%
    18:00 +27°C° 0 mm 1 mps 746 mmHg 58%
    19:00 +25°C° 0 mm 1 mps 746 mmHg 60%
    20:00 +23°C° 0 mm 1 mps 745 mmHg 63%
    21:00 +21°C° 0 mm 1 mps 745 mmHg 65%
    22:00 +20°C° 0 mm 1 mps 745 mmHg 65%
    23:00 +20°C° 0 mm 1 mps 746 mmHg 65%

    21 June, Friday

    Time Temperature Precipitation Wind Pressure Humidity
    00:00 +20°C° 0 mm 1 mps 746 mmHg 65%
    01:00 +19°C° 0 mm 1 mps 746 mmHg 68%
    02:00 +18°C° 0 mm 2 mps 746 mmHg 71%
    03:00 +17°C° 0 mm 2 mps 746 mmHg 73%
    04:00 +18°C° 0 mm 2 mps 746 mmHg 76%
    05:00 +18°C° 0 mm 2 mps 746 mmHg 78%
    06:00 +19°C° 0 mm 2 mps 746 mmHg 81%
    07:00 +20°C° 0 mm 2 mps 746 mmHg 77%
    08:00 +23°C° 0 mm 2 mps 746 mmHg 74%
    09:00 +24°C° 0 mm 2 mps 746 mmHg 70%
    10:00 +25°C° 0 mm 2 mps 746 mmHg 66%
    11:00 +26°C° 0 mm 3 mps 746 mmHg 63%
    12:00 +27°C° 0 mm 3 mps 746 mmHg 59%
    13:00 +27°C° 0.1 mm 3 mps 746 mmHg 60%
    14:00 +27°C° 0.1 mm 3 mps 746 mmHg 61%
    15:00 +27°C° 0.1 mm 4 mps 746 mmHg 62%
    16:00 +26°C° 0.3 mm 3 mps 746 mmHg 67%
    17:00 +26°C° 0.3 mm 2 mps 746 mmHg 72%
    18:00 +25°C° 0.3 mm 1 mps 745 mmHg 78%
    19:00 +24°C° 0.5 mm 1 mps 745 mmHg 80%
    20:00 +23°C° 0.5 mm 1 mps 746 mmHg 83%
    21:00 +21°C° 0.5 mm 1 mps 746 mmHg 85%
    22:00 +21°C° 0.1 mm 1 mps 746 mmHg 86%
    23:00 +20°C° 0.1 mm 2 mps 745 mmHg 87%
    Show more